Torna al catalogo

COSMOS 970 DEB

AttivoLEO
NORAD 10888·DEBRIS·🇷🇺 Russia

Lanciato Dec 21, 1977 da Baikonur Cosmodrome

Loading…

Prossimi Passaggi (prossime 24 ore)

TLE

AggiornatoSource: Space-Track

Epoca: Sep 14, 2026, 19:10 UTC

1 10888U 77121AK  26257.79913987  .00000111  00000-0  23314-3 0  9997
2 10888  65.5145 171.1365 0129211 235.0854 157.7501 13.62531552417438

Traccia COSMOS 970 DEB in tempo reale con AllMySat

Download on the App Store